FDX459 KMEM-KDFW

Flight info

Callsign FDX459
Flight time N/A
Altitude 40000
Route CHLDR5 ANSWA FEWWW BRDJE5
Aircraft B77L/H-SDE1E2E3FGHIJ2J3J4J5M1RWXY/LB1D1

Departure

Time 2026-05-06 16:24
Airport Memphis International Airport (KMEM)

Arrival

Time N/A
Airport Dallas Fort Worth International Airport (KDFW)
Time Latitude Longitude Altitude Speed Heading
2026-05-06 16:15 35.05966 -89.95707 335 ft 0 kts 181°
2026-05-06 16:17 35.05970 -89.95707 330 ft 3 kts 181°
2026-05-06 16:18 35.05996 -89.95706 330 ft 4 kts 181°
2026-05-06 16:18 35.06016 -89.95705 331 ft 4 kts 211°
2026-05-06 16:18 35.06027 -89.95685 330 ft 3 kts 272°
2026-05-06 16:18 35.06026 -89.95654 330 ft 3 kts 272°
2026-05-06 16:19 35.06026 -89.95650 330 ft 0 kts 272°
2026-05-06 16:20 35.06026 -89.95652 330 ft 0 kts 272°
2026-05-06 16:20 35.06026 -89.95671 331 ft 8 kts 272°
2026-05-06 16:20 35.06030 -89.95788 334 ft 15 kts 272°
2026-05-06 16:21 35.06035 -89.95912 332 ft 15 kts 272°
2026-05-06 16:21 35.06039 -89.96032 333 ft 13 kts 270°
2026-05-06 16:21 35.06039 -89.96147 332 ft 13 kts 272°
2026-05-06 16:21 35.06043 -89.96282 335 ft 19 kts 272°
2026-05-06 16:22 35.06047 -89.96436 335 ft 18 kts 266°
2026-05-06 16:22 35.05980 -89.96527 332 ft 15 kts 216°
2026-05-06 16:22 35.05918 -89.96633 333 ft 17 kts 266°
2026-05-06 16:22 35.05924 -89.96788 333 ft 19 kts 273°
2026-05-06 16:23 35.05878 -89.96905 329 ft 14 kts 206°
2026-05-06 16:23 35.05818 -89.96983 330 ft 13 kts 264°
2026-05-06 16:23 35.05818 -89.97006 333 ft 0 kts 274°
2026-05-06 16:23 35.05824 -89.97116 332 ft 55 kts 275°
2026-05-06 16:24 35.05856 -89.98165 494 ft 172 kts 276°
2026-05-06 16:24 35.05949 -89.99664 2315 ft 181 kts 278°
2026-05-06 16:24 35.06249 -90.01140 4235 ft 178 kts 290°
2026-05-06 16:24 35.06719 -90.02530 6008 ft 179 kts 283°
2026-05-06 16:25 35.07055 -90.04081 6927 ft 203 kts 280°
2026-05-06 16:25 35.07401 -90.05890 7575 ft 229 kts 281°
2026-05-06 16:25 35.07767 -90.07814 8736 ft 238 kts 280°
2026-05-06 16:25 35.08148 -90.09822 9915 ft 248 kts 280°
2026-05-06 16:26 35.08549 -90.11919 10953 ft 263 kts 280°
2026-05-06 16:26 35.08990 -90.14235 11475 ft 297 kts 279°
2026-05-06 16:26 35.09471 -90.16750 12339 ft 314 kts 279°
2026-05-06 16:26 35.09971 -90.19345 13754 ft 314 kts 278°
2026-05-06 16:27 35.10245 -90.21961 14894 ft 312 kts 266°
2026-05-06 16:27 35.10008 -90.24605 16131 ft 314 kts 259°
2026-05-06 16:27 35.09456 -90.27190 17401 ft 316 kts 250°
2026-05-06 16:27 35.08518 -90.29631 18567 ft 321 kts 245°
2026-05-06 16:28 35.07491 -90.32079 19548 ft 326 kts 245°
2026-05-06 16:28 35.06440 -90.34559 20563 ft 331 kts 245°
2026-05-06 16:28 35.05726 -90.36250 21254 ft 333 kts 245°
2026-05-06 16:28 35.04661 -90.38781 22262 ft 338 kts 245°
2026-05-06 16:29 35.03585 -90.41356 23249 ft 343 kts 245°
2026-05-06 16:29 35.02497 -90.43967 24135 ft 347 kts 245°
2026-05-06 16:29 35.01400 -90.46608 24999 ft 350 kts 245°
2026-05-06 16:29 35.00313 -90.49225 25885 ft 352 kts 245°
2026-05-06 16:30 34.99200 -90.51907 26770 ft 355 kts 246°
2026-05-06 16:30 34.98461 -90.53689 27286 ft 357 kts 246°
2026-05-06 16:30 34.96947 -90.57335 28348 ft 363 kts 246°
2026-05-06 16:30 34.95797 -90.60102 29129 ft 368 kts 246°
2026-05-06 16:31 34.94635 -90.62896 29909 ft 372 kts 246°
2026-05-06 16:31 34.93457 -90.65725 30574 ft 376 kts 246°
2026-05-06 16:31 34.92279 -90.68580 31218 ft 377 kts 248°
2026-05-06 16:31 34.91289 -90.71537 31826 ft 378 kts 252°
2026-05-06 16:32 34.90451 -90.74585 32399 ft 380 kts 253°
2026-05-06 16:32 34.89729 -90.77675 33161 ft 377 kts 256°
2026-05-06 16:32 34.89217 -90.80775 34075 ft 370 kts 259°
2026-05-06 16:32 34.88758 -90.83840 34767 ft 366 kts 259°
2026-05-06 16:33 34.88307 -90.86841 35325 ft 365 kts 259°
2026-05-06 16:33 34.87849 -90.89881 35854 ft 364 kts 259°
2026-05-06 16:33 34.87390 -90.92907 36385 ft 363 kts 259°
2026-05-06 16:34 34.86466 -90.98954 37302 ft 364 kts 259°
2026-05-06 16:34 34.86000 -91.01983 37743 ft 363 kts 259°
2026-05-06 16:34 34.85535 -91.05001 38197 ft 363 kts 259°
2026-05-06 16:34 34.85069 -91.08019 38645 ft 362 kts 260°
2026-05-06 16:35 34.84602 -91.11036 38967 ft 363 kts 259°
2026-05-06 16:35 34.84133 -91.14059 39199 ft 365 kts 259°
2026-05-06 16:35 34.83661 -91.17103 39473 ft 366 kts 259°
2026-05-06 16:35 34.83187 -91.20145 39754 ft 367 kts 259°
2026-05-06 16:36 34.82710 -91.23207 39947 ft 370 kts 259°
2026-05-06 16:36 34.81741 -91.29408 40029 ft 373 kts 259°
2026-05-06 16:37 34.80774 -91.35577 40043 ft 368 kts 259°
2026-05-06 16:37 34.79821 -91.41636 40061 ft 366 kts 259°
2026-05-06 16:38 34.78864 -91.47704 40065 ft 365 kts 259°
2026-05-06 16:38 34.77904 -91.53766 40100 ft 365 kts 259°
2026-05-06 16:39 34.76939 -91.59839 40078 ft 366 kts 259°
2026-05-06 16:39 34.75971 -91.65913 40066 ft 366 kts 259°
2026-05-06 16:40 34.75001 -91.71984 40064 ft 366 kts 259°
2026-05-06 16:40 34.73974 -91.78042 40065 ft 366 kts 257°
2026-05-06 16:41 34.72542 -91.84000 40067 ft 367 kts 255°
2026-05-06 16:41 34.71074 -91.89894 40044 ft 366 kts 255°
2026-05-06 16:42 34.69598 -91.95827 40077 ft 367 kts 255°
2026-05-06 16:42 34.68119 -92.01774 40073 ft 368 kts 255°
2026-05-06 16:43 34.66639 -92.07723 40075 ft 368 kts 255°
2026-05-06 16:43 34.65155 -92.13678 40075 ft 369 kts 255°
2026-05-06 16:44 34.63665 -92.19639 40072 ft 369 kts 255°
2026-05-06 16:44 34.62172 -92.25601 40074 ft 369 kts 255°
2026-05-06 16:45 34.60679 -92.31552 40073 ft 368 kts 255°
2026-05-06 16:45 34.59184 -92.37497 40065 ft 368 kts 255°
2026-05-06 16:46 34.57687 -92.43434 40065 ft 368 kts 255°
2026-05-06 16:46 34.56198 -92.49326 40065 ft 367 kts 255°
2026-05-06 16:47 34.54690 -92.55280 40064 ft 367 kts 254°
2026-05-06 16:47 34.53200 -92.61148 40063 ft 366 kts 254°
2026-05-06 16:48 34.51698 -92.67054 40064 ft 366 kts 254°
2026-05-06 16:48 34.50197 -92.72944 40069 ft 365 kts 254°
2026-05-06 16:49 34.48693 -92.78828 40044 ft 365 kts 254°
2026-05-06 16:49 34.47191 -92.84691 40069 ft 364 kts 254°
2026-05-06 16:50 34.45686 -92.90554 40079 ft 364 kts 254°
2026-05-06 16:50 34.44190 -92.96371 40054 ft 364 kts 254°
2026-05-06 16:51 34.42683 -93.02215 40036 ft 364 kts 254°
2026-05-06 16:51 34.41171 -93.08068 40057 ft 365 kts 254°
2026-05-06 16:52 34.39649 -93.13943 40054 ft 366 kts 254°
2026-05-06 16:52 34.38121 -93.19830 40047 ft 367 kts 254°
2026-05-06 16:53 34.36588 -93.25727 40041 ft 367 kts 254°
2026-05-06 16:53 34.35050 -93.31625 40038 ft 368 kts 254°
2026-05-06 16:54 34.33509 -93.37525 40029 ft 368 kts 253°
2026-05-06 16:54 34.31963 -93.43428 40026 ft 368 kts 253°
2026-05-06 16:55 34.30428 -93.49278 40029 ft 367 kts 253°
2026-05-06 16:55 34.28882 -93.55157 40028 ft 367 kts 253°
2026-05-06 16:56 34.27334 -93.61031 40028 ft 367 kts 253°
2026-05-06 16:56 34.25785 -93.66898 40023 ft 366 kts 253°
2026-05-06 16:57 34.24233 -93.72761 40023 ft 366 kts 253°
2026-05-06 16:57 34.22680 -93.78618 40019 ft 366 kts 253°
2026-05-06 16:58 34.21127 -93.84468 40027 ft 365 kts 253°
2026-05-06 16:58 34.19570 -93.90306 40026 ft 364 kts 253°
2026-05-06 16:59 34.17869 -93.96059 40020 ft 363 kts 251°
2026-05-06 16:59 34.16089 -94.01764 40011 ft 363 kts 251°
2026-05-06 17:00 34.14320 -94.07461 39992 ft 362 kts 251°
2026-05-06 17:00 34.12562 -94.13152 40016 ft 362 kts 251°
2026-05-06 17:01 34.10804 -94.18854 40024 ft 363 kts 251°
2026-05-06 17:01 34.09045 -94.24558 40029 ft 363 kts 251°
2026-05-06 17:02 34.07281 -94.30266 40035 ft 363 kts 251°
2026-05-06 17:02 34.05511 -94.35980 40035 ft 364 kts 251°
2026-05-06 17:03 34.03737 -94.41699 40035 ft 364 kts 251°
2026-05-06 17:03 34.01958 -94.47420 40035 ft 365 kts 251°
2026-05-06 17:04 34.00176 -94.53140 40035 ft 365 kts 251°
2026-05-06 17:04 33.98391 -94.58861 40011 ft 365 kts 250°
2026-05-06 17:05 33.96613 -94.64550 40014 ft 365 kts 250°
2026-05-06 17:05 33.94820 -94.70272 39990 ft 365 kts 250°
2026-05-06 17:06 33.93023 -94.75996 39989 ft 365 kts 250°
2026-05-06 17:06 33.91221 -94.81726 39987 ft 366 kts 250°
2026-05-06 17:07 33.89417 -94.87456 39990 ft 366 kts 250°
2026-05-06 17:07 33.87611 -94.93179 39990 ft 366 kts 250°
2026-05-06 17:08 33.85799 -94.98907 39980 ft 366 kts 250°
2026-05-06 17:08 33.83999 -95.04591 39986 ft 366 kts 250°
2026-05-06 17:09 33.82182 -95.10320 39993 ft 367 kts 250°
2026-05-06 17:09 33.80354 -95.16065 39995 ft 368 kts 250°
2026-05-06 17:10 33.78519 -95.21821 40000 ft 369 kts 250°
2026-05-06 17:10 33.76687 -95.27560 39997 ft 364 kts 250°
2026-05-06 17:11 33.74891 -95.33172 39990 ft 357 kts 250°
2026-05-06 17:11 33.73149 -95.38577 39791 ft 338 kts 250°
2026-05-06 17:11 33.72304 -95.41188 39322 ft 334 kts 250°
2026-05-06 17:12 33.71460 -95.43799 38688 ft 337 kts 250°
2026-05-06 17:12 33.70601 -95.46458 37867 ft 347 kts 250°
2026-05-06 17:12 33.69725 -95.49171 37174 ft 356 kts 249°
2026-05-06 17:12 33.68826 -95.51945 36519 ft 355 kts 249°
2026-05-06 17:13 33.67934 -95.54696 35896 ft 351 kts 249°
2026-05-06 17:13 33.67475 -95.56112 35569 ft 350 kts 248°